"Time","Temp","Dewpoint","Humidity","Pressure","Direction","Speed","Gust","Precip","PrecipRate"
"00:04:58","61.8","58.9","90.2","30.23","336","0","0","0.00","0.00"
"00:09:57","61.7","59","91","30.23","336","0","0","0.00","0.00"
"00:14:57","61.5","58.8","91","30.23","336","0","0","0.00","0.00"
"00:19:56","61.4","58.7","91","30.23","336","0","0","0.00","0.00"
"00:24:58","61.3","58.7","91","30.23","336","0","0","0.00","0.00"
"00:29:56","61.2","58.6","91.2","30.23","336","0","0","0.00","0.00"
"00:34:58","61","58.4","91.1","30.23","336","0","0","0.00","0.00"
"00:39:57","60.8","58.5","92","30.23","336","0","0","0.00","0.00"
"00:44:59","60.7","58.4","92","30.23","336","0","0","0.00","0.00"
"00:49:57","60.6","58.3","92","30.23","336","0","0","0.00","0.00"
"00:54:59","60.5","58.3","92.1","30.23","336","0","0","0.00","0.00"
"00:59:57","60.6","58.6","93","30.23","336","0","0","0.00","0.00"
"01:04:58","60.6","58.6","93","30.23","336","0","0","0.00","0.00"
"01:09:56","60.5","58.5","93","30.23","336","0","0","0.00","0.00"
"01:14:56","60.4","58.4","93","30.23","336","0","0","0.00","0.00"
"01:19:58","60.4","58.4","93","30.23","336","0","0","0.00","0.00"
"01:24:59","60.3","58.3","93","30.23","336","0","0","0.00","0.00"
"01:29:58","60.2","58.2","93","30.23","336","0","0","0.00","0.00"
"01:34:56","60","58","93","30.23","336","0","0","0.00","0.00"
"01:39:59","59.9","57.9","93","30.23","336","0","0","0.00","0.00"
"01:44:57","59.8","57.8","93","30.23","336","0","0","0.00","0.00"
"01:49:59","59.7","57.7","93","30.23","336","0","0","0.00","0.00"
"01:54:57","59.6","57.6","93","30.23","336","0","0","0.00","0.00"
"01:59:59","59.6","57.9","94","30.23","336","0","0","0.00","0.00"
"02:04:56","59.6","57.9","94","30.23","336","0","0","0.00","0.00"
"02:09:58","59.6","57.9","94","30.23","336","0","0","0.00","0.00"
"02:14:58","59.6","57.9","94","30.23","336","0","0","0.00","0.00"
"02:19:56","59.4","57.7","94","30.23","336","0","0","0.00","0.00"
"02:24:57","59.4","57.7","94","30.23","336","0","0","0.00","0.00"
"02:29:56","59.3","57.6","94","30.23","336","0","0","0.00","0.00"
"02:34:57","59.2","57.5","94","30.23","336","0","0","0.00","0.00"
"02:39:56","59.1","57.4","94","30.23","336","0","0","0.00","0.00"
"02:44:59","59","57.4","94.3","30.23","336","0","0","0.00","0.00"
"02:49:57","59","57.6","95","30.23","336","0","0","0.00","0.00"
"02:54:58","59","57.6","95","30.23","336","0","0","0.00","0.00"
"02:59:57","59","57.6","95","30.23","336","0","0","0.00","0.00"
"03:04:59","59","57.6","95","30.23","336","0","0","0.00","0.00"
"03:09:57","58.9","57.5","95","30.23","336","0","0","0.00","0.00"
"03:14:56","59","57.6","95","30.23","336","0","0","0.00","0.00"
"03:19:58","59","57.6","95","30.23","336","0","0","0.00","0.00"
"03:24:56","59","57.6","95","30.23","336","0","0","0.00","0.00"
"03:29:58","59","57.6","95","30.23","336","0","0","0.00","0.00"
"03:34:56","59","57.6","95","30.23","336","0","0","0.00","0.00"
"03:39:58","59","57.6","95","30.23","336","0","0","0.00","0.00"
"03:44:57","59","57.7","95.1","30.23","336","0","0","0.00","0.00"
"03:49:59","59.1","58","96","30.23","336","0","0","0.00","0.00"
"03:54:57","59.2","58.1","96","30.23","336","0","0","0.00","0.00"
"03:59:59","59.3","58.2","95.9","30.23","336","0","0","0.00","0.00"
"04:04:56","59.3","57.9","95","30.23","336","0","0","0.00","0.00"
"04:09:58","59.3","57.9","95","30.23","336","0","0","0.00","0.00"
"04:14:58","59.3","57.9","95","30.23","336","0","0","0.00","0.00"
"04:19:56","59.1","57.5","94.5","30.23","336","0","0","0.00","0.00"
"04:24:58","58.9","57.4","94.8","30.23","336","0","0","0.00","0.00"
"04:29:56","58.7","57.1","94.2","30.23","336","0","0","0.00","0.00"
"04:34:57","58.6","56.9","94","30.23","336","0","0","0.00","0.00"
"04:39:57","58.4","56.7","94","30.23","336","0","0","0.00","0.00"
"04:44:56","58.3","56.9","95","30.23","336","0","0","0.00","0.00"
"04:49:58","58.3","56.9","95","30.23","336","0","0","0.00","0.00"
"04:54:56","58.3","56.9","95","30.23","336","0","0","0.00","0.00"
"04:59:58","58.3","56.9","95","30.23","336","0","0","0.00","0.00"
"05:04:59","58.1","56.7","95","30.23","336","0","0","0.00","0.00"
"05:09:57","58","56.6","95","30.23","336","0","0","0.00","0.00"
"05:14:57","57.9","56.5","95","30.23","336","0","0","0.00","0.00"
"05:19:58","57.8","56.4","95","30.23","336","0","0","0.00","0.00"
"05:24:56","57.6","56.2","95","30.23","336","0","0","0.00","0.00"
"05:29:59","57.4","56","95","30.24","336","0","0","0.00","0.00"
"05:34:56","57.3","55.9","95","30.24","336","0","0","0.00","0.00"
